CYGFM02 (41886 NORAD) Tracking and Keplerian Element Data

This shows tracking and keplerian element data for the satellite.

Feedback or suggestion? Click here.




ElementValue
Catalog41886
NameCYGFM02
Epoch Orbit12533
Epoch Day80.86479002
Epoch Year2019
RAAN353.9514
Inclination34.9597
Eccentricity0.0015455
Argument of Perigee316.1337
Mean Anonmoly43.8146
Mean Motion15.14838108
Decay Rate3.97E-06
L11 41886U 16078C 19080.86479002 .00000397 00000-0 22572-4 0 9994
L22 41886 34.9597 353.9514 0015455 316.1337 43.8146 15.14838108125339

Live tracking and technical data element details for CYGFM02 (NORAD 41886). CYGFM02 can be tracked NOW for your location showing map with azimuth and elevation plus other details from your city location.

Track the satellite on the map from your city or location and see movement details for azimuth, elevation, latitude, longitude, range, height, and movement on the map or in text.







IsCatalogInMostPopularTable: catalog: 41886, numindb: 221
Update: records affected: 1



GetName: 41886 CYGFM02

Hit Count: updated at: Sat, 23 Mar 2019 02:19:18 GMT